TimePDT,TemperatureF,Dew PointF,Humidity,Sea Level PressureIn,VisibilityMPH,Wind Direction,Wind SpeedMPH,Gust SpeedMPH,PrecipitationIn,Events,Conditions,WindDirDegrees,DateUTC
12:53 AM,72.0,43.0,35,29.81,10.0,SW,12.7,-,N/A,,Clear,230,2013-07-11 07:53:00
1:53 AM,69.1,43.0,39,29.83,10.0,SSW,9.2,-,0.00,,Partly Cloudy,210,2013-07-11 08:53:00
2:53 AM,68.0,39.0,35,29.83,10.0,WSW,10.4,-,N/A,,Clear,250,2013-07-11 09:53:00
3:53 AM,66.9,39.0,36,29.85,10.0,SW,6.9,-,N/A,,Clear,230,2013-07-11 10:53:00
4:53 AM,64.9,39.9,40,29.86,10.0,WSW,10.4,-,N/A,,Clear,240,2013-07-11 11:53:00
5:53 AM,64.0,37.9,38,29.88,10.0,WSW,11.5,-,N/A,,Clear,240,2013-07-11 12:53:00
6:53 AM,66.0,37.0,34,29.89,10.0,WSW,11.5,-,N/A,,Clear,240,2013-07-11 13:53:00
7:53 AM,69.1,39.0,33,29.90,10.0,West,11.5,17.3,N/A,,Clear,260,2013-07-11 14:53:00
8:53 AM,71.1,37.0,29,29.90,10.0,West,13.8,-,N/A,,Clear,260,2013-07-11 15:53:00
9:53 AM,73.9,37.0,26,29.89,10.0,West,10.4,-,N/A,,Clear,270,2013-07-11 16:53:00
10:53 AM,78.1,37.0,23,29.89,10.0,West,9.2,-,N/A,,Clear,270,2013-07-11 17:53:00
11:53 AM,79.0,39.0,24,29.88,10.0,WNW,9.2,16.1,N/A,,Clear,300,2013-07-11 18:53:00
12:53 PM,84.9,37.9,19,29.86,10.0,WNW,9.2,-,N/A,,Clear,290,2013-07-11 19:53:00
1:53 PM,84.9,33.1,16,29.84,10.0,WSW,8.1,16.1,N/A,,Clear,240,2013-07-11 20:53:00
2:53 PM,87.1,28.9,12,29.83,10.0,West,10.4,-,N/A,,Clear,270,2013-07-11 21:53:00
3:53 PM,88.0,28.0,12,29.80,10.0,NW,8.1,17.3,N/A,,Clear,320,2013-07-11 22:53:00
4:53 PM,88.0,30.0,12,29.79,10.0,NNW,10.4,-,N/A,,Clear,330,2013-07-11 23:53:00
5:53 PM,89.1,32.0,13,29.77,10.0,NW,4.6,-,N/A,,Clear,320,2013-07-12 00:53:00
6:53 PM,87.1,33.1,15,29.76,10.0,West,5.8,-,N/A,,Clear,280,2013-07-12 01:53:00
7:53 PM,84.0,33.1,16,29.76,10.0,West,10.4,-,N/A,,Clear,260,2013-07-12 02:53:00
8:53 PM,75.9,37.0,24,29.78,10.0,SW,9.2,-,N/A,,Clear,230,2013-07-12 03:53:00
9:53 PM,73.0,41.0,31,29.80,10.0,SW,12.7,-,N/A,,Clear,220,2013-07-12 04:53:00
10:53 PM,68.0,42.1,39,29.83,10.0,SSW,9.2,-,N/A,,Clear,200,2013-07-12 05:53:00
11:53 PM,64.9,43.0,45,29.84,10.0,SW,8.1,-,N/A,,Clear,220,2013-07-12 06:53:00